Regional Weather Roundup
Issued by NWS

Home | Current Version | Previous Version | Graphics & Text | Print | Product List | Glossary On
Versions: 1 2 3 4 5 6 7 8 9 10 11 12 13 14 15 16 17 18 19 20 21 22 23 24 25 26 27 28 29 30 31 32 33 34 35 36 37 38 39 40 41 42 43 44 45 46 47 48 49 50
000
ASUS43 KTOP 072008
RWRKS

WEATHER ROUNDUP FOR KANSAS
NATIONAL WEATHER SERVICE GOODLAND KS
300 PM CDT TUE JUL 07 2015

NOTE:  "FAIR" INDICATES FEW OR NO CLOUDS BELOW 12,000 FEET WITH NO
SIGNIFICANT WEATHER AND/OR OBSTRUCTIONS TO VISIBILITY.

KSZ001>006-013>018-027>032-041>047-072100-
NORTHWEST KANSAS

CITY           SKY/WX    TMP DP  RH WIND       PRES   REMARKS
GOODLAND       SUNNY     74  45  35 SE15      30.16F
HAYS           MOSUNNY   77  48  36 NE15G22   30.12S
HILL CITY      MOSUNNY   78  48  34 NE12G23   30.13F HAZE
RUSSELL        MOSUNNY   76  51  41 NE14G22   30.10F
$$

KSZ061>065-074>080-084>089-072100-
SOUTHWEST KANSAS

CITY           SKY/WX    TMP DP  RH WIND       PRES   REMARKS
DODGE CITY     PTSUNNY   73  44  35 E15G23    30.12F
ELKHART          N/A     77  49  37 E9          N/A
GARDEN CITY    MOSUNNY   76  45  33 E12G22    30.12F
GREAT BEND     PTSUNNY   73  50  43 NE13G22   30.12S
LIBERAL        MOSUNNY   73  54  49 E9        30.14F
PRATT          CLOUDY    70  43  37 NE13      30.12F
$$

KSZ066>073-081>083-090>101-072100-
SOUTHEAST KANSAS

CITY           SKY/WX    TMP DP  RH WIND       PRES   REMARKS
CHANUTE        CLOUDY    67  64  90 NE6       30.05S FOG
COFFEYVILLE    CLOUDY    68  62  81 NE16      30.03S
HUTCHINSON     CLOUDY    69  52  54 NE10      30.10F
MEDICINE LODGE   N/A     67  53  61 N14       30.09F
NEWTON         CLOUDY    68  46  45 N14       30.11S
PARSONS        CLOUDY    67  63  87 N7        30.05S
WICHITA INTL   LGT RAIN  69  55  60 N16       30.07F
WICHITA JABRA  CLOUDY    70  55  59 N12       30.07S
WICHITA MCCONL CLOUDY    69  58  69 N16       30.06F
WINFIELD       LGT RAIN  67  63  87 NE10      30.07S FOG
$$

KSZ007>012-019>026-033>040-048>060-102>105-072100-
NORTHEAST KANSAS

CITY           SKY/WX    TMP DP  RH WIND       PRES   REMARKS
CONCORDIA      MOSUNNY   72  52  49 NE15G21   30.11F
EMPORIA        CLOUDY    71  58  63 N13       30.07S
LAWRENCE       CLOUDY    71  58  63 N10       30.07S
MANHATTAN      CLOUDY    73  51  46 NE13G21   30.09F
MARYSVILLE     MOSUNNY   72  50  46 NE8       30.11F
OLATHE IND     PTSUNNY   72  60  66 N10       30.06F HAZE
OLATHE EXE     PTSUNNY   73  59  61 NE13      30.04F HAZE
SALINA         PTSUNNY   75  49  39 NE16G24   30.09F
TOPEKA BILLARD CLOUDY    70  58  65 N12       30.08S
TOPEKA FORBES  CLOUDY    71  57  61 N8        30.07F
$$



USA.gov is the U.S. government's official web portal to all federal, state and local government web resources and services.